When you browse on this site, cookies collect data to enhance your experience and personalize the content and advertising you see.
Visit our Privacy Policy to learn more. By continuing to use the site, you agree to this use of cookies and data.
  • In Hungary
  • List of Countries
  • For 7 days
  • Water Temperature
  • Satellite Maps
  • Weather Map
  • News
  • Weather Widgets
  • user-avatar
    Login

    Hourly Weather Wasy

    Today, 16 January, Wednesday

    Time Temperature Precipitation Wind Pressure Humidity
    00:00 -2°C° 1.1 mm 7 mps 730 mmHg 96%
    01:00 -1°C° 1.1 mm 8 mps 730 mmHg 96%
    02:00 -1°C° 0.1 mm 8 mps 730 mmHg 94%
    03:00 -1°C° 0.1 mm 8 mps 731 mmHg 92%
    04:00 -1°C° 0.1 mm 8 mps 731 mmHg 90%
    05:00 -1°C° 0.1 mm 7 mps 732 mmHg 89%
    06:00 -2°C° 0.1 mm 7 mps 733 mmHg 88%
    07:00 -2°C° 0.1 mm 6 mps 734 mmHg 87%
    08:00 -1°C° 0 mm 5 mps 735 mmHg 88%
    09:00 -2°C° 0 mm 4 mps 735 mmHg 90%
    10:00 -1°C° 0 mm 3 mps 736 mmHg 92%
    11:00 -1°C° 0.1 mm 3 mps 736 mmHg 94%
    12:00 0°C° 0.1 mm 3 mps 736 mmHg 97%
    13:00 +1°C° 0.1 mm 2 mps 736 mmHg 99%
    14:00 0°C° 0.1 mm 3 mps 736 mmHg 99%
    15:00 0°C° 0.1 mm 3 mps 736 mmHg 98%
    16:00 -1°C° 0.1 mm 4 mps 736 mmHg 98%
    17:00 -1°C° 0.1 mm 4 mps 736 mmHg 98%
    18:00 0°C° 0.1 mm 5 mps 736 mmHg 98%
    19:00 0°C° 0.1 mm 5 mps 736 mmHg 98%
    20:00 0°C° 0 mm 5 mps 736 mmHg 97%
    21:00 0°C° 0 mm 5 mps 736 mmHg 96%
    22:00 0°C° 0 mm 5 mps 736 mmHg 96%
    23:00 -1°C° 0 mm 5 mps 736 mmHg 95%

    Tomorrow, 17 January, Thursday

    Time Temperature Precipitation Wind Pressure Humidity
    00:00 -1°C° 0 mm 5 mps 736 mmHg 95%
    01:00 -1°C° 0 mm 5 mps 735 mmHg 94%
    02:00 -2°C° 0 mm 6 mps 735 mmHg 92%
    03:00 -2°C° 0 mm 6 mps 734 mmHg 90%
    04:00 -2°C° 0 mm 6 mps 733 mmHg 88%
    05:00 -2°C° 0 mm 6 mps 733 mmHg 86%
    06:00 -2°C° 0 mm 7 mps 733 mmHg 83%
    07:00 -2°C° 0 mm 7 mps 732 mmHg 80%
    08:00 -2°C° 0 mm 7 mps 732 mmHg 79%
    09:00 -1°C° 0 mm 7 mps 732 mmHg 77%
    10:00 -1°C° 0 mm 7 mps 732 mmHg 76%
    11:00 -1°C° 0 mm 7 mps 732 mmHg 78%
    12:00 -1°C° 0 mm 7 mps 732 mmHg 81%
    13:00 0°C° 0 mm 7 mps 732 mmHg 83%
    14:00 0°C° 0 mm 7 mps 733 mmHg 84%
    15:00 -1°C° 0 mm 6 mps 733 mmHg 86%
    16:00 -1°C° 0 mm 6 mps 733 mmHg 87%
    17:00 -1°C° 0 mm 6 mps 733 mmHg 88%
    18:00 -1°C° 0 mm 6 mps 732 mmHg 88%
    19:00 -1°C° 0 mm 6 mps 732 mmHg 89%
    20:00 -1°C° 0 mm 7 mps 732 mmHg 88%
    21:00 -1°C° 0 mm 7 mps 732 mmHg 87%
    22:00 -1°C° 0 mm 8 mps 732 mmHg 86%
    23:00 -1°C° 0.2 mm 7 mps 732 mmHg 82%

    Day after tomorrow, 18 January, Friday

    Time Temperature Precipitation Wind Pressure Humidity
    00:00 -2°C° 0.2 mm 6 mps 733 mmHg 79%
    01:00 -2°C° 0.2 mm 6 mps 733 mmHg 75%
    02:00 -2°C° 0 mm 6 mps 733 mmHg 75%
    03:00 -3°C° 0 mm 7 mps 734 mmHg 74%
    04:00 -3°C° 0 mm 7 mps 734 mmHg 73%
    05:00 -4°C° 0 mm 7 mps 735 mmHg 75%
    06:00 -5°C° 0 mm 8 mps 735 mmHg 76%
    07:00 -5°C° 0 mm 8 mps 736 mmHg 78%
    08:00 -5°C° 0.1 mm 8 mps 737 mmHg 76%
    09:00 -4°C° 0.1 mm 7 mps 738 mmHg 75%
    10:00 -4°C° 0.1 mm 7 mps 739 mmHg 73%
    11:00 -4°C° 0.1 mm 7 mps 740 mmHg 71%
    12:00 -4°C° 0.1 mm 7 mps 740 mmHg 70%
    13:00 -4°C° 0.1 mm 7 mps 741 mmHg 68%
    14:00 -4°C° 0 mm 6 mps 742 mmHg 69%
    15:00 -4°C° 0 mm 5 mps 742 mmHg 71%
    16:00 -5°C° 0 mm 5 mps 743 mmHg 72%
    17:00 -4°C° 0 mm 4 mps 744 mmHg 72%
    18:00 -4°C° 0 mm 4 mps 744 mmHg 72%
    19:00 -4°C° 0 mm 4 mps 745 mmHg 72%
    20:00 -4°C° 0 mm 4 mps 745 mmHg 73%
    21:00 -4°C° 0 mm 4 mps 745 mmHg 75%
    22:00 -4°C° 0 mm 4 mps 746 mmHg 77%
    23:00 -4°C° 0 mm 4 mps 746 mmHg 78%

    19 January, Saturday

    Time Temperature Precipitation Wind Pressure Humidity
    00:00 -5°C° 0 mm 4 mps 746 mmHg 78%
    01:00 -5°C° 0 mm 4 mps 746 mmHg 79%
    02:00 -5°C° 0 mm 4 mps 746 mmHg 78%
    03:00 -5°C° 0 mm 4 mps 746 mmHg 77%
    04:00 -5°C° 0 mm 4 mps 746 mmHg 76%
    05:00 -5°C° 0 mm 4 mps 746 mmHg 76%
    06:00 -5°C° 0 mm 4 mps 746 mmHg 77%
    07:00 -5°C° 0 mm 4 mps 746 mmHg 78%
    08:00 -4°C° 0 mm 4 mps 746 mmHg 77%
    09:00 -5°C° 0 mm 5 mps 746 mmHg 77%
    10:00 -4°C° 0 mm 5 mps 746 mmHg 77%
    11:00 -3°C° 0 mm 4 mps 746 mmHg 76%
    12:00 -2°C° 0 mm 4 mps 746 mmHg 76%
    13:00 -2°C° 0 mm 4 mps 746 mmHg 76%
    14:00 -1°C° 0 mm 3 mps 746 mmHg 79%
    15:00 -2°C° 0 mm 2 mps 746 mmHg 82%
    16:00 -2°C° 0 mm 2 mps 746 mmHg 85%
    17:00 -2°C° 0 mm 2 mps 746 mmHg 85%
    18:00 -2°C° 0 mm 2 mps 746 mmHg 86%
    19:00 0°C° 0 mm 1 mps 746 mmHg 87%
    20:00 -2°C° 0 mm 2 mps 746 mmHg 87%
    21:00 -2°C° 0 mm 2 mps 746 mmHg 87%
    22:00 -2°C° 0 mm 2 mps 746 mmHg 87%
    23:00 -3°C° 0 mm 2 mps 746 mmHg 88%

    20 January, Sunday

    Time Temperature Precipitation Wind Pressure Humidity
    00:00 -3°C° 0 mm 2 mps 746 mmHg 88%
    01:00 -3°C° 0 mm 2 mps 746 mmHg 89%
    02:00 -3°C° 0 mm 2 mps 746 mmHg 90%
    03:00 -3°C° 0 mm 2 mps 746 mmHg 91%
    04:00 -3°C° 0 mm 2 mps 745 mmHg 92%
    05:00 -4°C° 0 mm 3 mps 745 mmHg 90%
    06:00 -4°C° 0 mm 3 mps 745 mmHg 88%
    07:00 -4°C° 0 mm 3 mps 746 mmHg 85%
    08:00 -4°C° 0 mm 4 mps 746 mmHg 84%
    09:00 -3°C° 0 mm 4 mps 746 mmHg 82%
    10:00 -3°C° 0 mm 4 mps 746 mmHg 81%
    11:00 -4°C° 0 mm 5 mps 746 mmHg 76%
    12:00 -4°C° 0 mm 5 mps 746 mmHg 71%
    13:00 -4°C° 0 mm 5 mps 746 mmHg 67%
    14:00 -4°C° 0.1 mm 5 mps 746 mmHg 69%
    15:00 -4°C° 0.1 mm 5 mps 746 mmHg 71%
    16:00 -4°C° 0.1 mm 4 mps 747 mmHg 73%
    17:00 -4°C° 0.1 mm 4 mps 747 mmHg 74%
    18:00 -4°C° 0.1 mm 4 mps 747 mmHg 75%
    19:00 -5°C° 0.1 mm 4 mps 748 mmHg 77%
    20:00 -5°C° 0 mm 4 mps 748 mmHg 77%
    21:00 -5°C° 0 mm 4 mps 749 mmHg 78%
    22:00 -5°C° 0 mm 4 mps 749 mmHg 79%
    23:00 -7°C° 0 mm 4 mps 750 mmHg 80%

    21 January, Monday

    Time Temperature Precipitation Wind Pressure Humidity
    00:00 -7°C° 0 mm 4 mps 750 mmHg 81%
    01:00 -6°C° 0 mm 3 mps 750 mmHg 83%
    02:00 -6°C° 0 mm 3 mps 751 mmHg 83%
    03:00 -6°C° 0 mm 3 mps 751 mmHg 84%
    04:00 -7°C° 0 mm 4 mps 751 mmHg 85%
    05:00 -6°C° 0 mm 3 mps 752 mmHg 86%
    06:00 -7°C° 0 mm 3 mps 752 mmHg 87%
    07:00 -7°C° 0 mm 3 mps 752 mmHg 88%
    08:00 -6°C° 0 mm 3 mps 753 mmHg 86%
    09:00 -6°C° 0 mm 3 mps 753 mmHg 85%
    10:00 -5°C° 0 mm 3 mps 754 mmHg 83%
    11:00 -5°C° 0 mm 3 mps 754 mmHg 80%
    12:00 -4°C° 0 mm 3 mps 754 mmHg 77%
    13:00 -4°C° 0 mm 3 mps 754 mmHg 74%
    14:00 -4°C° 0 mm 3 mps 754 mmHg 76%
    15:00 -4°C° 0 mm 2 mps 754 mmHg 78%
    16:00 -4°C° 0 mm 2 mps 754 mmHg 80%
    17:00 -4°C° 0 mm 2 mps 754 mmHg 80%
    18:00 -5°C° 0 mm 2 mps 754 mmHg 81%
    19:00 -5°C° 0 mm 2 mps 753 mmHg 81%
    20:00 -5°C° 0 mm 2 mps 753 mmHg 81%
    21:00 -5°C° 0 mm 2 mps 753 mmHg 81%
    22:00 -5°C° 0 mm 2 mps 753 mmHg 81%
    23:00 -5°C° 0 mm 2 mps 753 mmHg 81%
    Show more